�������l�o���
Date,Time,MP-1(��Sv/h),MP-2(��Sv/h),MP-3(��Sv/h),MP-4(��Sv/h),MP-5(��Sv/h),MP-6(��Sv/h),MP-7(��Sv/h),MP-8(��Sv/h),����,����(m/s),���J
2022/04/20,00:00,0.562,0.835,0.536,1.012,0.717,0.342,0.593,0.560,���쐼,0.9,��
2022/04/20,00:10,0.563,0.836,0.536,1.013,0.715,0.341,0.591,0.561,���쐼,1.5,��
2022/04/20,00:20,0.564,0.837,0.537,1.013,0.716,0.343,0.593,0.559,���쐼,0.6,��
2022/04/20,00:30,0.561,0.837,0.535,1.012,0.717,0.341,0.593,0.562,���쐼,0.6,��
2022/04/20,00:40,0.564,0.838,0.537,1.015,0.717,0.342,0.590,0.559,-,CALM,��
2022/04/20,00:50,0.563,0.836,0.537,1.015,0.716,0.342,0.593,0.562,�k��,0.6,��
2022/04/20,01:00,0.563,0.837,0.537,1.013,0.716,0.342,0.592,0.560,���쐼,0.9,��
2022/04/20,01:10,0.562,0.836,0.537,1.014,0.715,0.342,0.593,0.560,�쐼,0.6,��
2022/04/20,01:20,0.563,0.836,0.536,1.018,0.716,0.343,0.592,0.559,�쐼,0.6,��
2022/04/20,01:30,0.562,0.836,0.536,1.013,0.715,0.343,0.590,0.561,�쐼,1.4,��
2022/04/20,01:40,0.563,0.836,0.535,1.014,0.715,0.342,0.593,0.560,��쐼,1.4,��
2022/04/20,01:50,0.564,0.837,0.537,1.013,0.717,0.341,0.591,0.560,�쐼,0.6,��
2022/04/20,02:00,0.562,0.835,0.538,1.016,0.716,0.340,0.592,0.560,-,CALM,��
2022/04/20,02:10,0.564,0.834,0.537,1.014,0.717,0.342,0.592,0.560,-,CALM,��
2022/04/20,02:20,0.563,0.836,0.537,1.015,0.715,0.342,0.593,0.562,��,0.8,��
2022/04/20,02:30,0.561,0.838,0.536,1.014,0.717,0.342,0.593,0.559,-,CALM,��
2022/04/20,02:40,0.563,0.836,0.538,1.015,0.718,0.343,0.594,0.560,-,CALM,��
2022/04/20,02:50,0.563,0.836,0.537,1.016,0.715,0.341,0.593,0.559,-,CALM,��
2022/04/20,03:00,0.564,0.835,0.537,1.014,0.715,0.342,0.592,0.561,�k,0.9,��
2022/04/20,03:10,0.563,0.835,0.538,1.013,0.718,0.342,0.592,0.561,-,CALM,��
2022/04/20,03:20,0.563,0.837,0.535,1.014,0.718,0.342,0.591,0.560,�k�k��,0.9,��
2022/04/20,03:30,0.563,0.837,0.539,1.015,0.717,0.342,0.592,0.560,�k�k��,0.8,��
2022/04/20,03:40,0.563,0.838,0.536,1.016,0.716,0.342,0.593,0.560,�k�k��,0.6,��
2022/04/20,03:50,0.563,0.837,0.537,1.014,0.716,0.341,0.592,0.561,-,CALM,��
2022/04/20,04:00,0.563,0.836,0.537,1.013,0.717,0.342,0.593,0.561,-,CALM,��
2022/04/20,04:10,0.565,0.836,0.538,1.015,0.718,0.343,0.592,0.561,���k��,0.6,��
2022/04/20,04:20,0.564,0.836,0.538,1.014,0.716,0.342,0.591,0.561,-,CALM,��
2022/04/20,04:30,0.563,0.835,0.537,1.016,0.717,0.342,0.592,0.561,-,CALM,��
2022/04/20,04:40,0.565,0.838,0.538,1.014,0.716,0.343,0.592,0.561,���k��,0.6,��
2022/04/20,04:50,0.563,0.838,0.538,1.016,0.716,0.341,0.592,0.561,-,CALM,��
2022/04/20,05:00,0.563,0.835,0.538,1.016,0.718,0.342,0.591,0.561,-,CALM,��
2022/04/20,05:10,0.563,0.837,0.537,1.014,0.716,0.342,0.591,0.560,���k��,0.6,��
2022/04/20,05:20,0.564,0.836,0.537,1.014,0.717,0.343,0.592,0.561,���k��,0.6,��
2022/04/20,05:30,0.563,0.837,0.537,1.015,0.717,0.343,0.592,0.561,���쓌,0.6,��
2022/04/20,05:40,0.562,0.837,0.538,1.017,0.717,0.343,0.591,0.561,���쓌,0.6,��
2022/04/20,05:50,0.565,0.835,0.539,1.016,0.716,0.343,0.592,0.561,���쓌,0.6,��
2022/04/20,06:00,0.564,0.835,0.538,1.014,0.720,0.343,0.594,0.560,-,CALM,��
2022/04/20,06:10,0.567,0.836,0.537,1.016,0.719,0.342,0.592,0.561,���쓌,0.8,��
2022/04/20,06:20,0.565,0.836,0.537,1.017,0.718,0.343,0.593,0.561,���k��,1.4,��
2022/04/20,06:30,0.566,0.839,0.537,1.015,0.717,0.343,0.591,0.562,��,1.2,��
2022/04/20,06:40,0.566,0.839,0.539,1.016,0.718,0.342,0.592,0.560,�k�k��,1.2,��
2022/04/20,06:50,0.566,0.839,0.537,1.016,0.717,0.342,0.591,0.562,���k��,0.9,��
2022/04/20,07:00,0.563,0.837,0.539,1.016,0.718,0.343,0.591,0.560,�k��,1.2,��
2022/04/20,07:10,0.564,0.838,0.537,1.016,0.719,0.343,0.592,0.561,�k�k��,1.4,��
2022/04/20,07:20,0.564,0.839,0.537,1.016,0.717,0.344,0.593,0.562,�k��,1.2,��
2022/04/20,07:30,0.566,0.842,0.540,1.016,0.718,0.344,0.593,0.563,�k��,1.2,��
2022/04/20,07:40,0.566,0.840,0.539,1.016,0.717,0.342,0.591,0.560,���k��,1.5,��
2022/04/20,07:50,0.567,0.840,0.539,1.015,0.718,0.341,0.592,0.561,�k��,1.5,��
2022/04/20,08:00,0.566,0.842,0.538,1.015,0.719,0.342,0.593,0.561,���k��,0.9,��
2022/04/20,08:10,0.565,0.839,0.538,1.017,0.720,0.342,0.591,0.563,��,1.5,��
2022/04/20,08:20,0.568,0.835,0.539,1.018,0.719,0.343,0.591,0.561,��,2.0,��
2022/04/20,08:30,0.568,0.835,0.538,1.014,0.720,0.343,0.591,0.562,��,1.7,��
2022/04/20,08:40,0.569,0.835,0.540,1.016,0.719,0.341,0.591,0.562,��,1.7,��
2022/04/20,08:50,0.567,0.837,0.539,1.017,0.717,0.342,0.590,0.561,���쓌,2.3,��
2022/04/20,09:00,0.565,0.834,0.539,1.018,0.718,0.343,0.591,0.561,���쓌,1.9,��
2022/04/20,09:10,0.567,0.835,0.538,1.017,0.718,0.343,0.590,0.561,�쓌,1.7,��
2022/04/20,09:20,0.566,0.835,0.540,1.017,0.719,0.342,0.591,0.561,���쓌,2.5,��
2022/04/20,09:30,0.566,0.838,0.540,1.016,0.718,0.342,0.591,0.560,��,1.9,��
2022/04/20,09:40,0.565,0.838,0.539,1.015,0.718,0.342,0.590,0.559,���쓌,2.6,��
2022/04/20,09:50,0.565,0.835,0.539,1.018,0.719,0.341,0.591,0.561,�쓌,3.0,��
2022/04/20,10:00,0.565,0.835,0.538,1.017,0.718,0.343,0.591,0.559,�쓌,3.1,��
2022/04/20,10:10,0.565,0.839,0.539,1.017,0.720,0.342,0.590,0.560,���쓌,3.4,��
2022/04/20,10:20,0.566,0.836,0.540,1.010,0.717,0.342,0.592,0.561,�쓌,3.0,��
2022/04/20,10:30,0.565,0.837,0.539,1.013,0.717,0.344,0.591,0.560,�쓌,4.2,��
2022/04/20,10:40,0.563,0.838,0.540,1.018,0.719,0.342,0.589,0.561,�쓌,4.3,��
2022/04/20,10:50,0.565,0.836,0.539,1.018,0.721,0.343,0.591,0.560,�쓌,5.0,��
2022/04/20,11:00,0.564,0.839,0.535,1.017,0.719,0.342,0.591,0.558,�쓌,6.3,��
2022/04/20,11:10,0.564,0.837,0.538,1.018,0.718,0.341,0.591,0.561,�쓌,5.6,��
2022/04/20,11:20,0.564,0.838,0.538,1.019,0.717,0.341,0.592,0.560,�쓌,6.4,��
2022/04/20,11:30,0.566,0.837,0.538,1.020,0.719,0.341,0.592,0.560,�쓌,6.3,��
2022/04/20,11:40,0.566,0.839,0.538,1.019,0.720,0.341,0.592,0.560,�쓌,6.8,��
2022/04/20,11:50,0.565,0.839,0.540,1.021,0.718,0.342,0.592,0.561,�쓌,6.1,��
2022/04/20,12:00,0.565,0.838,0.538,1.019,0.717,0.341,0.593,0.561,�쓌,5.0,��
2022/04/20,12:10,0.565,0.841,0.542,1.019,0.720,0.343,0.591,0.562,�쓌,5.4,��
2022/04/20,12:20,0.567,0.840,0.539,1.018,0.721,0.343,0.592,0.561,�쓌,5.7,��
2022/04/20,12:30,0.565,0.840,0.540,1.018,0.722,0.343,0.594,0.561,�쓌,6.3,��
2022/04/20,12:40,0.567,0.842,0.539,1.020,0.722,0.343,0.596,0.561,��쓌,8.1,��
2022/04/20,12:50,0.567,0.841,0.539,1.020,0.722,0.342,0.595,0.560,��쓌,8.9,��
2022/04/20,13:00,0.568,0.839,0.539,1.020,0.722,0.342,0.593,0.561,��쓌,10.9,��
2022/04/20,13:10,0.569,0.839,0.539,1.019,0.721,0.344,0.593,0.562,��쓌,9.1,��
2022/04/20,13:20,0.569,0.839,0.540,1.021,0.722,0.343,0.594,0.561,��쓌,11.4,��
2022/04/20,13:30,0.569,0.837,0.541,1.021,0.723,0.344,0.595,0.561,��쓌,11.9,��
2022/04/20,13:40,0.568,0.841,0.540,1.021,0.721,0.343,0.595,0.560,��쓌,12.7,��
2022/04/20,13:50,0.568,0.840,0.541,1.023,0.722,0.345,0.595,0.561,��쓌,11.7,��
2022/04/20,14:00,0.568,0.842,0.543,1.020,0.724,0.344,0.595,0.561,��쓌,12.0,��
2022/04/20,14:10,0.569,0.841,0.541,1.020,0.724,0.344,0.595,0.561,��,12.7,��
2022/04/20,14:20,0.568,0.844,0.541,1.020,0.723,0.343,0.595,0.562,��쓌,13.2,��
2022/04/20,14:30,0.568,0.843,0.540,1.021,0.723,0.344,0.596,0.562,��쓌,12.5,��
2022/04/20,14:40,0.570,0.843,0.541,1.023,0.722,0.343,0.594,0.562,��쓌,11.7,��
2022/04/20,14:50,0.569,0.846,0.541,1.022,0.725,0.345,0.595,0.563,��쓌,11.3,��
2022/04/20,15:00,0.570,0.843,0.541,1.022,0.726,0.343,0.595,0.563,��,11.0,��
2022/04/20,15:10,0.571,0.842,0.542,1.022,0.724,0.344,0.596,0.562,��,10.8,��
2022/04/20,15:20,0.570,0.842,0.541,1.020,0.724,0.345,0.595,0.563,��쓌,11.0,��
2022/04/20,15:30,0.568,0.843,0.541,1.020,0.725,0.343,0.596,0.563,��,10.2,��
2022/04/20,15:40,0.572,0.847,0.541,1.019,0.724,0.344,0.597,0.562,��,9.9,��
2022/04/20,15:50,0.569,0.844,0.541,1.020,0.723,0.345,0.596,0.562,��,9.6,��
2022/04/20,16:00,0.570,0.843,0.542,1.019,0.724,0.345,0.596,0.562,��쓌,9.4,��
2022/04/20,16:10,0.569,0.845,0.540,1.019,0.725,0.345,0.595,0.561,��쓌,8.6,��
2022/04/20,16:20,0.569,0.847,0.542,1.018,0.725,0.345,0.597,0.564,��,8.0,��
2022/04/20,16:30,0.569,0.845,0.540,1.020,0.725,0.345,0.594,0.563,��,7.6,��
2022/04/20,16:40,0.570,0.845,0.540,1.021,0.725,0.345,0.596,0.562,��,8.1,��
2022/04/20,16:50,0.568,0.846,0.543,1.021,0.723,0.345,0.595,0.562,��,6.6,��
2022/04/20,17:00,0.570,0.846,0.543,1.021,0.726,0.346,0.596,0.562,��,6.9,��
2022/04/20,17:10,0.571,0.847,0.541,1.022,0.725,0.347,0.596,0.562,��,8.5,��
2022/04/20,17:20,0.569,0.847,0.542,1.022,0.726,0.345,0.596,0.564,��,8.5,��
2022/04/20,17:30,0.569,0.849,0.542,1.021,0.724,0.343,0.596,0.563,��,7.8,��
2022/04/20,17:40,0.571,0.848,0.542,1.023,0.723,0.344,0.595,0.566,��,8.9,��
2022/04/20,17:50,0.572,0.847,0.542,1.024,0.727,0.346,0.594,0.564,��,7.8,��
2022/04/20,18:00,0.572,0.846,0.541,1.022,0.724,0.345,0.594,0.565,��쓌,8.6,��
2022/04/20,18:10,0.571,0.849,0.540,1.023,0.724,0.347,0.595,0.565,��,8.2,��
2022/04/20,18:20,0.572,0.847,0.541,1.024,0.726,0.346,0.595,0.565,��,8.4,��
2022/04/20,18:30,0.571,0.845,0.543,1.023,0.725,0.346,0.595,0.567,��,8.5,��
2022/04/20,18:40,0.573,0.847,0.544,1.026,0.725,0.346,0.594,0.564,��,7.9,��
2022/04/20,18:50,0.572,0.849,0.543,1.022,0.725,0.346,0.597,0.563,��,6.6,��
2022/04/20,19:00,0.573,0.851,0.546,1.025,0.728,0.346,0.595,0.564,��,7.0,��
2022/04/20,19:10,0.571,0.846,0.543,1.025,0.728,0.345,0.597,0.564,��,7.4,��
2022/04/20,19:20,0.571,0.847,0.543,1.026,0.727,0.345,0.595,0.566,��,7.3,��
2022/04/20,19:30,0.573,0.849,0.545,1.025,0.729,0.345,0.598,0.565,��,6.4,��
2022/04/20,19:40,0.571,0.848,0.542,1.024,0.729,0.346,0.597,0.565,��,6.2,��
2022/04/20,19:50,0.570,0.847,0.545,1.025,0.726,0.346,0.596,0.564,��,6.0,��
2022/04/20,20:00,0.572,0.849,0.542,1.025,0.729,0.347,0.599,0.564,��,5.8,��
2022/04/20,20:10,0.572,0.849,0.543,1.023,0.727,0.345,0.597,0.564,��,5.9,��
2022/04/20,20:20,0.572,0.846,0.543,1.024,0.728,0.346,0.596,0.563,��,6.5,��
2022/04/20,20:30,0.570,0.850,0.542,1.025,0.728,0.346,0.597,0.564,��,5.3,��
2022/04/20,20:40,0.572,0.848,0.544,1.023,0.729,0.346,0.597,0.564,��,5.9,��
2022/04/20,20:50,0.571,0.849,0.542,1.024,0.728,0.346,0.597,0.564,��,5.9,��
2022/04/20,21:00,0.572,0.848,0.545,1.025,0.727,0.346,0.596,0.563,��,6.0,��
2022/04/20,21:10,0.571,0.849,0.545,1.024,0.727,0.347,0.597,0.565,��,5.7,��
2022/04/20,21:20,0.571,0.847,0.542,1.023,0.725,0.347,0.599,0.564,��,8.6,��
2022/04/20,21:30,0.571,0.849,0.543,1.024,0.727,0.346,0.598,0.564,��,7.9,��
2022/04/20,21:40,0.572,0.848,0.544,1.025,0.726,0.346,0.598,0.564,��,7.5,��
2022/04/20,21:50,0.571,0.847,0.544,1.023,0.727,0.346,0.596,0.564,��,7.4,��
2022/04/20,22:00,0.571,0.849,0.544,1.027,0.727,0.346,0.598,0.564,��쐼,7.4,��
2022/04/20,22:10,0.571,0.848,0.543,1.023,0.727,0.347,0.597,0.566,��쐼,6.7,��
2022/04/20,22:20,0.571,0.848,0.544,1.027,0.728,0.346,0.596,0.564,��,7.1,��
2022/04/20,22:30,0.571,0.847,0.543,1.028,0.726,0.346,0.596,0.564,��,7.6,��
2022/04/20,22:40,0.571,0.849,0.543,1.025,0.728,0.345,0.597,0.564,��,7.7,��
2022/04/20,22:50,0.571,0.849,0.543,1.025,0.727,0.345,0.596,0.564,��,7.9,��
2022/04/20,23:00,0.569,0.848,0.543,1.024,0.727,0.346,0.595,0.563,��쐼,8.3,��
2022/04/20,23:10,0.570,0.849,0.544,1.023,0.729,0.345,0.598,0.563,��,8.1,��
2022/04/20,23:20,0.570,0.848,0.543,1.026,0.730,0.346,0.597,0.564,��,8.4,��
2022/04/20,23:30,0.572,0.848,0.545,1.023,0.728,0.346,0.596,0.563,��,8.2,��
2022/04/20,23:40,0.571,0.849,0.542,1.024,0.727,0.347,0.596,0.563,��쐼,8.5,��
2022/04/20,23:50,0.573,0.847,0.544,1.024,0.727,0.345,0.597,0.564,��쐼,8.8,��
